ZIP16RN EGNS-EGCC

Flight info

Callsign ZIP16RN
Flight time 0h 26m
Altitude 15000
Route TIMIS Q39 DANDI DCT PENIL
Aircraft DH8D/M-SDE2E3FGRY/H

Departure

Time 2026-04-20 21:15
Airport Isle of Man Airport (EGNS)

Arrival

Time 2026-04-20 21:41
Airport Manchester Airport (EGCC)
Time Latitude Longitude Altitude Speed Heading
2026-04-20 20:56 54.08725 -4.63187 67 ft 0 kts 45°
2026-04-20 21:07 54.08725 -4.63186 67 ft 0 kts 45°
2026-04-20 21:07 54.08723 -4.63189 67 ft 1 kts 45°
2026-04-20 21:08 54.08713 -4.63206 67 ft 2 kts 45°
2026-04-20 21:08 54.08702 -4.63225 67 ft 2 kts 46°
2026-04-20 21:08 54.08698 -4.63247 67 ft 2 kts 102°
2026-04-20 21:08 54.08703 -4.63263 68 ft 1 kts 134°
2026-04-20 21:09 54.08704 -4.63264 68 ft 0 kts 134°
2026-04-20 21:11 54.08699 -4.63256 67 ft 2 kts 133°
2026-04-20 21:11 54.08673 -4.63211 66 ft 9 kts 134°
2026-04-20 21:11 54.08622 -4.63121 63 ft 11 kts 132°
2026-04-20 21:12 54.08561 -4.63037 60 ft 12 kts 159°
2026-04-20 21:12 54.08453 -4.62993 55 ft 13 kts 170°
2026-04-20 21:12 54.08409 -4.63039 53 ft 9 kts 256°
2026-04-20 21:12 54.08392 -4.63172 54 ft 12 kts 257°
2026-04-20 21:13 54.08369 -4.63347 56 ft 17 kts 258°
2026-04-20 21:13 54.08344 -4.63552 55 ft 17 kts 254°
2026-04-20 21:13 54.08292 -4.63742 54 ft 17 kts 240°
2026-04-20 21:13 54.08228 -4.63904 54 ft 13 kts 204°
2026-04-20 21:14 54.08153 -4.63876 52 ft 7 kts 134°
2026-04-20 21:14 54.08148 -4.63825 52 ft 0 kts 79°
2026-04-20 21:14 54.08184 -4.63526 49 ft 72 kts 77°
2026-04-20 21:15 54.08344 -4.62246 62 ft 140 kts 78°
2026-04-20 21:15 54.08523 -4.60567 757 ft 143 kts 81°
2026-04-20 21:15 54.08488 -4.59068 1713 ft 134 kts 118°
2026-04-20 21:15 54.07585 -4.58253 2125 ft 166 kts 173°
2026-04-20 21:16 54.06482 -4.58502 3014 ft 155 kts 188°
2026-04-20 21:16 54.05456 -4.59100 3553 ft 171 kts 192°
2026-04-20 21:16 54.04276 -4.59047 3936 ft 175 kts 152°
2026-04-20 21:16 54.03223 -4.58007 4568 ft 178 kts 145°
2026-04-20 21:17 54.02174 -4.56902 5212 ft 182 kts 146°
2026-04-20 21:17 54.01107 -4.55759 5871 ft 185 kts 145°
2026-04-20 21:17 54.00017 -4.54583 6526 ft 189 kts 145°
2026-04-20 21:17 53.98825 -4.53283 6777 ft 215 kts 145°
2026-04-20 21:18 53.97554 -4.51891 7372 ft 221 kts 146°
2026-04-20 21:18 53.96275 -4.50488 8030 ft 224 kts 146°
2026-04-20 21:18 53.94966 -4.49052 8741 ft 225 kts 146°
2026-04-20 21:18 53.93653 -4.47612 9440 ft 227 kts 146°
2026-04-20 21:19 53.92338 -4.46170 10128 ft 229 kts 145°
2026-04-20 21:19 53.91001 -4.44704 10787 ft 233 kts 146°
2026-04-20 21:19 53.89631 -4.43203 11444 ft 237 kts 145°
2026-04-20 21:20 53.86923 -4.39974 12762 ft 242 kts 131°
2026-04-20 21:20 53.85922 -4.37706 13402 ft 244 kts 122°
2026-04-20 21:20 53.85282 -4.36112 13814 ft 247 kts 122°
2026-04-20 21:20 53.83986 -4.32893 14601 ft 253 kts 123°
2026-04-20 21:21 53.82978 -4.30397 14883 ft 269 kts 123°
2026-04-20 21:21 53.81882 -4.27694 15036 ft 286 kts 123°
2026-04-20 21:21 53.80740 -4.24887 15248 ft 294 kts 124°
2026-04-20 21:21 53.79570 -4.22015 15301 ft 304 kts 124°
2026-04-20 21:22 53.78338 -4.19003 15319 ft 314 kts 124°
2026-04-20 21:22 53.77092 -4.15962 15321 ft 321 kts 124°
2026-04-20 21:22 53.75817 -4.12856 15313 ft 326 kts 123°
2026-04-20 21:22 53.74504 -4.09668 15319 ft 331 kts 124°
2026-04-20 21:23 53.73164 -4.06481 15312 ft 334 kts 124°
2026-04-20 21:23 53.71821 -4.03295 15315 ft 336 kts 124°
2026-04-20 21:23 53.70466 -4.00067 15314 ft 338 kts 124°
2026-04-20 21:23 53.69126 -3.96866 15302 ft 339 kts 124°
2026-04-20 21:24 53.67936 -3.93451 15316 ft 339 kts 114°
2026-04-20 21:24 53.67039 -3.89790 15313 ft 340 kts 111°
2026-04-20 21:24 53.66182 -3.86084 15316 ft 341 kts 110°
2026-04-20 21:24 53.65330 -3.82373 15324 ft 341 kts 110°
2026-04-20 21:25 53.64457 -3.78612 15332 ft 341 kts 110°
2026-04-20 21:25 53.63594 -3.74930 15332 ft 341 kts 110°
2026-04-20 21:25 53.62718 -3.71222 15333 ft 341 kts 110°
2026-04-20 21:25 53.61837 -3.67541 15328 ft 341 kts 111°
2026-04-20 21:26 53.60675 -3.64075 15341 ft 342 kts 122°
2026-04-20 21:26 53.59299 -3.60787 15329 ft 343 kts 123°
2026-04-20 21:26 53.57928 -3.57545 15326 ft 343 kts 124°
2026-04-20 21:26 53.56556 -3.54305 15333 ft 344 kts 124°
2026-04-20 21:27 53.55168 -3.51029 15331 ft 344 kts 124°
2026-04-20 21:27 53.53774 -3.47739 15334 ft 344 kts 124°
2026-04-20 21:27 53.52407 -3.44512 15294 ft 338 kts 123°
2026-04-20 21:27 53.51068 -3.41349 15171 ft 331 kts 123°
2026-04-20 21:28 53.49735 -3.38203 15026 ft 326 kts 123°
2026-04-20 21:28 53.48443 -3.35156 14886 ft 321 kts 123°
2026-04-20 21:28 53.47154 -3.32121 14751 ft 318 kts 124°
2026-04-20 21:28 53.45887 -3.29140 14625 ft 315 kts 124°
2026-04-20 21:29 53.44628 -3.26181 14519 ft 311 kts 124°
2026-04-20 21:29 53.43367 -3.23204 14214 ft 314 kts 123°
2026-04-20 21:29 53.42490 -3.19883 13873 ft 312 kts 99°
2026-04-20 21:29 53.42649 -3.16340 13543 ft 307 kts 74°
2026-04-20 21:30 53.43334 -3.12981 13087 ft 305 kts 69°
2026-04-20 21:30 53.44084 -3.09697 12665 ft 302 kts 68°
2026-04-20 21:30 53.44864 -3.06426 12228 ft 300 kts 68°
2026-04-20 21:30 53.45640 -3.03255 11783 ft 295 kts 67°
2026-04-20 21:31 53.46393 -3.00084 11427 ft 285 kts 72°
2026-04-20 21:31 53.46544 -2.96814 11347 ft 281 kts 97°
2026-04-20 21:31 53.46046 -2.93720 11346 ft 275 kts 106°
2026-04-20 21:31 53.45413 -2.90689 11128 ft 275 kts 109°
2026-04-20 21:32 53.44736 -2.87715 10801 ft 277 kts 109°
2026-04-20 21:32 53.43877 -2.84833 10437 ft 278 kts 124°
2026-04-20 21:32 53.42531 -2.82520 10034 ft 277 kts 136°
2026-04-20 21:32 53.41021 -2.80509 9645 ft 276 kts 140°
2026-04-20 21:33 53.39519 -2.78560 9182 ft 276 kts 140°
2026-04-20 21:33 53.37999 -2.76592 8662 ft 273 kts 140°
2026-04-20 21:33 53.36544 -2.74705 8239 ft 262 kts 139°
2026-04-20 21:33 53.35138 -2.72887 7834 ft 253 kts 140°
2026-04-20 21:34 53.33762 -2.71112 7392 ft 246 kts 140°
2026-04-20 21:34 53.32425 -2.69382 6945 ft 241 kts 139°
2026-04-20 21:34 53.31118 -2.67693 6508 ft 236 kts 139°
2026-04-20 21:34 53.29842 -2.66055 6072 ft 231 kts 139°
2026-04-20 21:35 53.28574 -2.64436 5648 ft 230 kts 139°
2026-04-20 21:35 53.27291 -2.62815 5208 ft 229 kts 140°
2026-04-20 21:35 53.26045 -2.61215 4775 ft 228 kts 135°
2026-04-20 21:35 53.25174 -2.59070 4328 ft 223 kts 106°
2026-04-20 21:36 53.25003 -2.56562 3909 ft 216 kts 90°
2026-04-20 21:36 53.24989 -2.54097 3510 ft 210 kts 90°
2026-04-20 21:36 53.24979 -2.51681 3172 ft 201 kts 89°
2026-04-20 21:36 53.24972 -2.49428 3049 ft 189 kts 90°
2026-04-20 21:37 53.25272 -2.47427 2843 ft 182 kts 50°
2026-04-20 21:37 53.26281 -2.46179 2579 ft 177 kts 43°
2026-04-20 21:37 53.27044 -2.44715 2757 ft 166 kts 57°
2026-04-20 21:37 53.27753 -2.43159 2514 ft 168 kts 53°
2026-04-20 21:38 53.28489 -2.41728 2280 ft 157 kts 53°
2026-04-20 21:38 53.29168 -2.40346 2011 ft 147 kts 54°
2026-04-20 21:38 53.29789 -2.39059 1802 ft 139 kts 55°
2026-04-20 21:38 53.30391 -2.37800 1627 ft 141 kts 55°
2026-04-20 21:39 53.30979 -2.36587 1446 ft 126 kts 53°
2026-04-20 21:39 53.31526 -2.35465 1281 ft 123 kts 54°
2026-04-20 21:39 53.32078 -2.34354 1121 ft 125 kts 53°
2026-04-20 21:39 53.32616 -2.33206 951 ft 127 kts 55°
2026-04-20 21:40 53.33183 -2.32055 757 ft 128 kts 53°
2026-04-20 21:40 53.33738 -2.30880 576 ft 129 kts 53°
2026-04-20 21:40 53.34301 -2.29709 422 ft 129 kts 53°
2026-04-20 21:40 53.34862 -2.28554 262 ft 128 kts 52°
2026-04-20 21:41 53.35371 -2.27499 246 ft 90 kts 51°
2026-04-20 21:41 53.35645 -2.26930 264 ft 37 kts 52°
2026-04-20 21:41 53.35785 -2.26680 270 ft 19 kts 12°
2026-04-20 21:41 53.35898 -2.26710 270 ft 6 kts 330°
2026-04-20 21:42 53.35908 -2.26723 270 ft 0 kts 314°
2026-04-20 21:42 53.35916 -2.26741 270 ft 2 kts 296°
2026-04-20 21:42 53.35913 -2.26801 270 ft 5 kts 261°
2026-04-20 21:42 53.35930 -2.26843 270 ft 6 kts 342°
2026-04-20 21:43 53.35955 -2.26846 270 ft 1 kts
2026-04-20 21:43 53.35966 -2.26846 270 ft 2 kts 356°
2026-04-20 21:43 53.35980 -2.26868 269 ft 8 kts 284°
2026-04-20 21:43 53.35988 -2.26942 268 ft 3 kts 300°
2026-04-20 21:44 53.35988 -2.26943 268 ft 0 kts 301°